When you browse on this site, cookies collect data to enhance your experience and personalize the content and advertising you see.
Visit our Privacy Policy to learn more. By continuing to use the site, you agree to this use of cookies and data.
  • En España
  • Lista de países
  • Para 7 días
  • Temperatura del agua
  • El tiempo en el mapa
  • Informadores
  • user-avatar
    Iniciar sesión

    Tiempo cada hora Pusan

    Hoy, 25 Mayo, Lunes

    Tiempo Temperatura Precipitaciones Viento Presión Humedad
    00:00 +20°C° 0 mm 3 mps 757 mmHg 86%
    01:00 +20°C° 0 mm 3 mps 757 mmHg 87%
    02:00 +19°C° 0 mm 3 mps 756 mmHg 88%
    03:00 +19°C° 0 mm 2 mps 756 mmHg 88%
    04:00 +19°C° 0 mm 2 mps 757 mmHg 87%
    05:00 +19°C° 0 mm 2 mps 757 mmHg 86%
    06:00 +19°C° 0 mm 2 mps 757 mmHg 85%
    07:00 +21°C° 0 mm 1 mps 757 mmHg 77%
    08:00 +23°C° 0 mm 1 mps 757 mmHg 68%
    09:00 +24°C° 0 mm 1 mps 757 mmHg 57%
    10:00 +25°C° 0 mm 1 mps 757 mmHg 50%
    11:00 +27°C° 0 mm 2 mps 757 mmHg 43%
    12:00 +28°C° 0 mm 2 mps 757 mmHg 36%
    13:00 +28°C° 0 mm 3 mps 757 mmHg 36%
    14:00 +28°C° 0 mm 4 mps 756 mmHg 37%
    15:00 +28°C° 0 mm 3 mps 756 mmHg 37%
    16:00 +27°C° 0 mm 3 mps 756 mmHg 40%
    17:00 +27°C° 0 mm 3 mps 756 mmHg 43%
    18:00 +26°C° 0 mm 3 mps 756 mmHg 46%
    19:00 +25°C° 0 mm 3 mps 756 mmHg 50%
    20:00 +24°C° 0 mm 2 mps 756 mmHg 53%
    21:00 +23°C° 0 mm 2 mps 756 mmHg 57%
    22:00 +21°C° 0 mm 2 mps 756 mmHg 58%
    23:00 +22°C° 0 mm 1 mps 756 mmHg 59%

    Mañana, 26 Mayo, Martes

    Tiempo Temperatura Precipitaciones Viento Presión Humedad
    00:00 +22°C° 0 mm 1 mps 757 mmHg 60%
    01:00 +21°C° 0 mm 1 mps 756 mmHg 60%
    02:00 +21°C° 0 mm 1 mps 756 mmHg 60%
    03:00 +21°C° 0 mm 1 mps 755 mmHg 60%
    04:00 +21°C° 0 mm 1 mps 755 mmHg 59%
    05:00 +21°C° 0 mm 1 mps 755 mmHg 58%
    06:00 +21°C° 0 mm 1 mps 755 mmHg 58%
    07:00 +22°C° 0 mm 1 mps 755 mmHg 53%
    08:00 +23°C° 0 mm 1 mps 755 mmHg 49%
    09:00 +25°C° 0 mm 1 mps 755 mmHg 44%
    10:00 +26°C° 0 mm 1 mps 755 mmHg 41%
    11:00 +27°C° 0 mm 2 mps 755 mmHg 38%
    12:00 +29°C° 0 mm 3 mps 755 mmHg 34%
    13:00 +28°C° 0 mm 4 mps 755 mmHg 36%
    14:00 +28°C° 0 mm 5 mps 754 mmHg 38%
    15:00 +28°C° 0 mm 5 mps 754 mmHg 40%
    16:00 +27°C° 0 mm 5 mps 754 mmHg 42%
    17:00 +26°C° 0 mm 5 mps 754 mmHg 45%
    18:00 +25°C° 0 mm 5 mps 753 mmHg 48%
    19:00 +23°C° 0 mm 5 mps 754 mmHg 52%
    20:00 +22°C° 0 mm 5 mps 754 mmHg 56%
    21:00 +21°C° 0 mm 4 mps 754 mmHg 60%
    22:00 +21°C° 0 mm 4 mps 754 mmHg 58%
    23:00 +20°C° 0 mm 4 mps 754 mmHg 55%

    Pasado mañana, 27 Mayo, Miércoles

    Tiempo Temperatura Precipitaciones Viento Presión Humedad
    00:00 +20°C° 0 mm 3 mps 754 mmHg 53%
    01:00 +20°C° 0 mm 3 mps 754 mmHg 55%
    02:00 +19°C° 0 mm 3 mps 754 mmHg 58%
    03:00 +19°C° 0 mm 3 mps 754 mmHg 61%
    04:00 +18°C° 0 mm 3 mps 754 mmHg 64%
    05:00 +18°C° 0 mm 3 mps 755 mmHg 67%
    06:00 +18°C° 0 mm 3 mps 755 mmHg 71%
    07:00 +19°C° 0 mm 3 mps 755 mmHg 61%
    08:00 +21°C° 0 mm 3 mps 755 mmHg 51%
    09:00 +24°C° 0 mm 2 mps 755 mmHg 42%
    10:00 +25°C° 0 mm 3 mps 755 mmHg 37%
    11:00 +26°C° 0 mm 3 mps 755 mmHg 32%
    12:00 +28°C° 0 mm 4 mps 756 mmHg 27%
    13:00 +29°C° 0 mm 4 mps 755 mmHg 25%
    14:00 +29°C° 0 mm 4 mps 755 mmHg 23%
    15:00 +30°C° 0 mm 4 mps 755 mmHg 21%
    16:00 +29°C° 0 mm 4 mps 755 mmHg 28%
    17:00 +27°C° 0 mm 4 mps 755 mmHg 34%
    18:00 +26°C° 0 mm 4 mps 755 mmHg 41%
    19:00 +25°C° 0 mm 4 mps 755 mmHg 45%
    20:00 +22°C° 0 mm 3 mps 756 mmHg 49%
    21:00 +21°C° 0 mm 3 mps 756 mmHg 54%
    22:00 +20°C° 0 mm 2 mps 756 mmHg 56%
    23:00 +20°C° 0 mm 2 mps 756 mmHg 59%

    28 Mayo, Jueves

    Tiempo Temperatura Precipitaciones Viento Presión Humedad
    00:00 +19°C° 0 mm 2 mps 756 mmHg 62%
    01:00 +19°C° 0 mm 2 mps 756 mmHg 63%
    02:00 +19°C° 0 mm 1 mps 756 mmHg 64%
    03:00 +19°C° 0 mm 1 mps 756 mmHg 65%
    04:00 +19°C° 0 mm 1 mps 756 mmHg 65%
    05:00 +19°C° 0 mm 1 mps 756 mmHg 66%
    06:00 +19°C° 0 mm 1 mps 756 mmHg 66%
    07:00 +21°C° 0 mm 1 mps 756 mmHg 58%
    08:00 +23°C° 0 mm 1 mps 756 mmHg 50%
    09:00 +26°C° 0 mm 1 mps 756 mmHg 42%
    10:00 +27°C° 0 mm 2 mps 756 mmHg 37%
    11:00 +28°C° 0 mm 3 mps 756 mmHg 31%
    12:00 +29°C° 0 mm 4 mps 756 mmHg 26%
    13:00 +29°C° 0 mm 4 mps 756 mmHg 28%
    14:00 +29°C° 0 mm 5 mps 756 mmHg 30%
    15:00 +28°C° 0 mm 6 mps 755 mmHg 33%
    16:00 +27°C° 0 mm 6 mps 755 mmHg 35%
    17:00 +27°C° 0 mm 6 mps 755 mmHg 37%
    18:00 +26°C° 0 mm 5 mps 755 mmHg 39%
    19:00 +25°C° 0 mm 5 mps 756 mmHg 46%
    20:00 +23°C° 0 mm 4 mps 756 mmHg 52%
    21:00 +21°C° 0 mm 4 mps 757 mmHg 58%
    22:00 +21°C° 0 mm 3 mps 757 mmHg 59%
    23:00 +20°C° 0 mm 3 mps 757 mmHg 61%

    29 Mayo, Viernes

    Tiempo Temperatura Precipitaciones Viento Presión Humedad
    00:00 +20°C° 0 mm 3 mps 757 mmHg 63%
    01:00 +20°C° 0 mm 2 mps 757 mmHg 66%
    02:00 +19°C° 0 mm 2 mps 757 mmHg 69%
    03:00 +19°C° 0 mm 2 mps 757 mmHg 71%
    04:00 +19°C° 0 mm 2 mps 757 mmHg 71%
    05:00 +18°C° 0 mm 2 mps 757 mmHg 70%
    06:00 +19°C° 0 mm 1 mps 758 mmHg 69%
    07:00 +22°C° 0 mm 1 mps 758 mmHg 60%
    08:00 +24°C° 0 mm 1 mps 758 mmHg 51%
    09:00 +26°C° 0 mm 1 mps 758 mmHg 42%
    10:00 +28°C° 0 mm 2 mps 759 mmHg 38%
    11:00 +29°C° 0 mm 3 mps 759 mmHg 34%
    12:00 +30°C° 0 mm 4 mps 759 mmHg 30%
    13:00 +30°C° 0 mm 4 mps 759 mmHg 31%
    14:00 +29°C° 0 mm 4 mps 759 mmHg 33%
    15:00 +29°C° 0 mm 4 mps 759 mmHg 34%
    16:00 +28°C° 0 mm 4 mps 759 mmHg 36%
    17:00 +27°C° 0 mm 4 mps 759 mmHg 38%
    18:00 +26°C° 0 mm 4 mps 759 mmHg 39%
    19:00 +25°C° 0 mm 4 mps 759 mmHg 42%
    20:00 +23°C° 0 mm 4 mps 760 mmHg 44%
    21:00 +22°C° 0 mm 3 mps 760 mmHg 46%
    22:00 +21°C° 0 mm 3 mps 761 mmHg 48%
    23:00 +21°C° 0 mm 3 mps 761 mmHg 49%

    30 Mayo, Sábado

    Tiempo Temperatura Precipitaciones Viento Presión Humedad
    00:00 +20°C° 0 mm 3 mps 761 mmHg 51%
    01:00 +20°C° 0 mm 3 mps 761 mmHg 52%
    02:00 +20°C° 0 mm 3 mps 760 mmHg 53%
    03:00 +19°C° 0 mm 3 mps 760 mmHg 54%
    04:00 +19°C° 0 mm 4 mps 760 mmHg 56%
    05:00 +19°C° 0 mm 4 mps 761 mmHg 58%
    06:00 +19°C° 0 mm 4 mps 761 mmHg 61%
    07:00 +20°C° 0 mm 4 mps 761 mmHg 58%
    08:00 +22°C° 0 mm 4 mps 761 mmHg 56%
    09:00 +23°C° 0 mm 4 mps 761 mmHg 53%
    10:00 +25°C° 0 mm 4 mps 761 mmHg 48%
    11:00 +26°C° 0 mm 4 mps 760 mmHg 43%
    12:00 +27°C° 0 mm 4 mps 760 mmHg 38%
    13:00 +27°C° 0 mm 4 mps 760 mmHg 42%
    14:00 +27°C° 0 mm 3 mps 760 mmHg 46%
    15:00 +26°C° 0 mm 2 mps 760 mmHg 49%
    16:00 +25°C° 0.1 mm 3 mps 760 mmHg 53%
    17:00 +23°C° 0.1 mm 4 mps 760 mmHg 57%
    18:00 +22°C° 0.1 mm 4 mps 760 mmHg 61%
    19:00 +21°C° 0.1 mm 4 mps 760 mmHg 62%
    20:00 +20°C° 0.1 mm 3 mps 760 mmHg 64%
    21:00 +19°C° 0.1 mm 2 mps 760 mmHg 65%
    22:00 +19°C° 0.1 mm 2 mps 760 mmHg 69%
    23:00 +19°C° 0.1 mm 2 mps 760 mmHg 72%
    Mostrar más